This demonstration page uses our WeatherBlox Daily Observations layout. Learn more.

36.19886, -115.1175

Hourly Observations for August 1, 2018

Temp ( °F °C ) Dew Point ( °F °C ) Humidity (%) Winds ( mph kmh ) Pressure ( in mb ) Visibility ( mi km ) Precip ( " mm )
12:53 am 00:53 Clear 95 35 55 12.8 26 26 N 9 15 29.85 1011 10 16.09344 0 0
1:53 am 01:53 Clear 95 35 51 10.6 23 23 N 15 24 29.85 1011 10 16.09344 0 0
2:53 am 02:53 Clear 93 33.9 52 11.1 25 25 N 18 30 29.85 1011 10 16.09344 0 0
3:53 am 03:53 Clear 93 33.9 52 11.1 25 25 NNW 14 22 29.85 1011 10 16.09344 0 0
4:53 am 04:53 Clear 89 31.7 52 11.1 28 28 N 10 17 29.85 1011 10 16.09344 0 0
5:53 am 05:53 Sunny 88 31.1 52 11.1 29 29 N 13 20 29.88 1012 10 16.09344 0 0
6:53 am 06:53 Sunny 90 32.2 53 11.7 28 28 NNW 9 15 29.88 1012 10 16.09344 0 0
7:53 am 07:53 Sunny 92 33.3 52 11.1 26 26 Calm 29.88 1012 10 16.09344 0 0
8:53 am 08:53 Sunny 93 33.9 53 11.7 26 26 WNW 3 6 29.88 1012 10 16.09344 0 0
9:53 am 09:53 Sunny 96 35.6 54 12.2 24 24 SSE 7 11 29.88 1012 10 16.09344 0 0
10:53 am 10:53 Sunny 98 36.7 51 10.6 20 20 N 7 11 29.88 1012 10 16.09344 0 0
11:53 am 11:53 Sunny 100 37.8 51 10.6 19 19 SSE 6 9 29.88 1012 10 16.09344 0 0
12:53 pm 12:53 Sunny with Nearby Thunderstorms 103 39.4 51 10.6 18 18 S 6 9 29.85 1011 10 16.09344 0 0
1:25 pm 13:25 Sunny with Thunderstorms 104 40 52 11.1 18 18 SSE 9 15 29.71 1006 10 16.09344 0 0
1:53 pm 13:53 Sunny with Thunderstorms 106 41.1 52 11.1 17 17 SSE 7 11 29.83 1010 10 16.09344 0 0
1:55 pm 13:55 Sunny 106 41.1 52 11.1 17 17 SSE 8 13 29.65 1004 10 16.09344 0 0
2:53 pm 14:53 Sunny 108 42.2 51 10.6 15 15 WSW 7 11 29.77 1008 10 16.09344 0 0
3:23 pm 15:23 Sunny with Nearby Thunderstorms 107 41.7 49 9.4 14 14 SW 8 13 29.59 1002 10 16.09344 0 0
3:42 pm 15:42 Sunny with Thunderstorms 108 42.2 49 9.4 14 14 WSW 13 20 29.59 1002 10 16.09344 0 0
3:53 pm 15:53 Sunny 107 41.7 50 10 15 15 N 7 11 29.74 1007 10 16.09344 0 0
4:25 pm 16:25 Sunny with Thunderstorms 109 42.8 49 9.4 13 13 WSW 14 22 29.56 1001 10 16.09344 0 0
4:40 pm 16:40 Sunny with Nearby Thunderstorms 108 42.2 49 9.4 14 14 WNW 12 19 29.56 1001 10 16.09344 0 0
4:53 pm 16:53 Sunny 108 42.2 49 9.4 14 14 SW 8 13 29.74 1007 10 16.09344 0 0
5:53 pm 17:53 Sunny 107 41.7 48 8.9 14 14 WSW 14 22 29.74 1007 10 16.09344 0 0
6:53 pm 18:53 Sunny 107 41.7 47 8.3 13 13 WSW 13 20 29.74 1007 10 16.09344 0 0
7:53 pm 19:53 Clear 105 40.6 46 7.8 14 14 WSW 7 11 29.74 1007 10 16.09344 0 0
8:53 pm 20:53 Clear 103 39.4 46 7.8 15 15 WSW 7 11 29.77 1008 10 16.09344 0 0
9:53 pm 21:53 Clear 101 38.3 47 8.3 16 16 SW 5 7 29.77 1008 10 16.09344 0 0
10:53 pm 22:53 Clear 99 37.2 48 8.9 18 18 WSW 6 9 29.77 1008 10 16.09344 0 0
11:53 pm 23:53 Clear 95 35 48 8.9 20 20 Calm 29.8 1009 10 16.09344 0 0

Powered by AerisWeather